Regional Weather Roundup
Issued by NWS

Home | Current Version | Previous Version | Graphics & Text | Print | Product List | Glossary On
Versions: 1 2 3 4 5 6 7 8 9 10 11 12 13 14 15 16 17 18 19 20 21 22 23 24 25 26 27 28 29 30 31 32 33 34 35 36 37 38 39 40 41 42 43 44 45 46 47 48 49 50
000
ASUS43 KMPX 181701
RWRMN
WEATHER ROUNDUP FOR MINNESOTA
NATIONAL WEATHER SERVICE TWIN CITIES/CHANHASSEN MN
1100 AM CST THU DEC 18 2014


NOTE: "FAIR" INDICATES FEW OR NO CLOUDS BELOW 12,000 FEET WITH NO
SIGNIFICANT WEATHER AND/OR OBSTRUCTIONS TO VISIBILITY. N/A MEANS
CURRENT SKY AND/OR WEATHER CONDITIONS ARE NOT AVAILABLE.

MNZ060>063-068>070-181800-
   Twin Cities Metro

CITY           SKY/WX    TMP DP  RH WIND       PRES   REMARKS
TWIN CITIES    LGT SNOW  18  15  88 CALM      30.32S FOG
ST PAUL        CLOUDY    21  16  81 S5        30.33S WCI  15
CRYSTAL        LGT SNOW  21  17  84 CALM      30.30F FOG
LAKEVILLE      FLURRIES  18  16  93 S5        30.30F WCI  11
EDEN PRAIRIE   CLOUDY    18  14  84 SE3       30.30F FOG
SOUTH ST PAUL  CLOUDY    21  16  83 CALM      30.32S
LAKE ELMO      LGT SNOW  23  19  86 CALM      30.31F
$$
MNZ001>005-007-008-013>017-022>024-027-028-181800-
   Northwest Minnesota

CITY           SKY/WX    TMP DP  RH WIND       PRES   REMARKS
BEMIDJI        SUNNY     15  11  85 SE9       30.25S WCI   3
HALLOCK        MOSUNNY   16  12  86 S8        30.23F WCI   5
ROSEAU         SUNNY     18  12  79 S6        30.24S WCI   9
WARROAD        SUNNY     12   9  85 CALM      30.25S
THIEF RVR FALL SUNNY     16  12  86 S10       30.24S WCI   3
CROOKSTON      PTSUNNY   16  12  86 S10       30.26S WCI   3
FOSSTON        SUNNY     18  12  79 S10       30.24S WCI   6
DETROIT LAKES  MOSUNNY   16  14  93 S9        30.24S WCI   4
MOORHEAD       CLOUDY    18  16  93 S12       30.26S WCI   5
PARK RAPIDS    PTSUNNY   14  10  84 SE10      30.25R FOG     WCI   1
MAHNOMEN       FAIR      15  10  82 S7        30.24S WCI   5
$$
MNZ006-009>011-018-025>026-181800-
   North Central Minnesota

CITY           SKY/WX    TMP DP  RH WIND       PRES   REMARKS
BAUDETTE       SUNNY     13   9  84 CALM      30.25F
FLAG ISLAND    SUNNY     10   7  85 S8        30.25F WCI  -1
INTL FALLS     CLOUDY    15  11  83 VRB5      30.28F WCI   8
WASKISH        SUNNY     18  16  93 CALM      30.26F
BIG FORK       FLURRIES  18  12  79 CALM      30.27F
LONGVILLE      LGT SNOW  18  16  93 CALM      30.26F
GRAND RAPIDS   CLOUDY    16  12  86 CALM      30.26F
CRANE LAKE     FLURRIES  12  10  92 CALM      30.31F
ORR            CLOUDY    18  12  79 CALM      30.25F
COOK           CLOUDY    18  16  93 CALM      30.27F
WALKER         LGT SNOW  11   9  89 E3        30.26F
$$
MNZ012-019>021-037-181800-
   Northeast Minnesota

CITY           SKY/WX    TMP DP  RH WIND       PRES   REMARKS
DULUTH         CLOUDY    22  17  81 CALM      30.25F
ELY            FLURRIES  16  14  93 CALM      30.27F
HIBBING        CLOUDY    20  14  77 CALM      30.26F
EVELETH        MOSUNNY   21  18  86 CALM      30.27F
DULUTH HARBOR  CLOUDY    25  21  86 CALM      30.31F
TWO HARBORS    CLOUDY    28  23  80 NE3       30.27S
SILVER BAY     CLOUDY    27  21  80 NE6       30.27F WCI  20
GRAND MARAIS     N/A     24  14  65 E3        30.35F
G MARAIS ARPRT PTSUNNY   16   9  73 CALM      30.26S
$$
MNZ029>031-032-039>041-046>048-054>057-064-181800-
   West Central Minnesota

CITY           SKY/WX    TMP DP  RH WIND       PRES   REMARKS
FERGUS FALLS   PTSUNNY   14  10  85 SE12      30.29S WCI   0
WHEATON        PTSUNNY   12  10  92 SE8       30.27F WCI   1
MORRIS         PTSUNNY   16  12  86 SE7       30.25S FOG     WCI   6
ALEXANDRIA     SUNNY     16  11  80 S9        30.25S WCI   4
ELBOW LAKE     CLOUDY    14  11  91 SE10      30.25S WCI   1
WADENA         MOSUNNY   14  12  92 NW7       30.25S WCI   4
GLENWOOD       SUNNY     16  14  93 SE8       30.26F WCI   5
APPLETON       CLOUDY    16  14  93 CALM      30.27S
BENSON         CLOUDY    16  12  86 S8        30.27S WCI   5
ORTONVILLE     PTSUNNY   14  10  85 SE7       30.24F WCI   4
MADISON        PTSUNNY   19  18  93 SE3       30.26F
WILLMAR          N/A     18  12  79 S7        30.29S HAZE    WCI   8
$$
MNZ033>034-036-042>043-049>051-058-059-181800-
   Central Minnesota

CITY           SKY/WX    TMP DP  RH WIND       PRES   REMARKS
ST CLOUD       LGT SNOW  19  14  81 SE3       30.29F VSB 1
SAUK CENTRE    FAIR      15  13  92 SE6       30.28S WCI   6
PAYNESVILLE    SUNNY     14  11  89 E5        30.29S WCI   6
AITKIN         LGT SNOW  21  16  79 CALM      30.26F
PINE RIVER     CLOUDY    16  14  93 S3        30.29F
BRAINERD       LGT SNOW  18  14  84 SE3       30.28F FOG
STAPLES        FLURRIES  16  12  86 SE6       30.26F WCI   7
LONG PRAIRIE   PTSUNNY   14  10  85 NW5       30.27S WCI   6
LITTLE FALLS   LGT SNOW  18  14  86 CALM      30.29F
LITCHFIELD     SUNNY     18  14  86 SE3       30.29F
BUFFALO        LGT SNOW  18  14  86 CALM      30.31F
MAPLE LAKE     LGT SNOW  19  17  90 CALM      30.31F
$$
MNZ037-044-045-052-053-181800-
   East Central Minnesota

CITY           SKY/WX    TMP DP  RH WIND       PRES   REMARKS
PRINCETON      LGT SNOW  19  18  93 CALM      30.29F
MORA           CLOUDY    19  16  86 CALM      30.31S
CAMBRIDGE      FLURRIES  21  14  73 CALM      30.29F
RUSH CITY      CLOUDY    21  18  86 CALM      30.30F
MOOSE LAKE     CLOUDY    21  19  93 CALM      30.27F
HINCKLEY       CLOUDY    23  19  86 CALM      30.29F
CLOQUET        CLOUDY    21  18  86 CALM      30.25F
MCGREGOR       CLOUDY    21  19  93 CALM      30.28F
$$
MNZ071>073-080-081-089-090-097-098-181800-
   Southwest Minnesota

CITY           SKY/WX    TMP DP  RH WIND       PRES   REMARKS
MONTEVIDEO     CLOUDY    16  16 100 S3        30.28S
GRANITE FALLS  CLOUDY    15  13  92 SE7       30.29F WCI   5
CANBY          CLOUDY    18  16  92 SE5       30.26S WCI  11
MARSHALL       CLOUDY    16  12  86 CALM      30.25S
REDWOOD FALLS  PTSUNNY   17  13  84 SE9       30.28F WCI   6
OLIVIA         CLOUDY    18  16  93 SE7       30.28F FOG     WCI   8
PIPESTONE      CLOUDY    19  18  93 CALM      30.20S
WINDOM         CLOUDY    19  18  93 CALM      30.25S
WORTHINGTON    CLOUDY    19  16  86 S7        30.23S WCI  10
JACKSON        CLOUDY    21  18  86 S3        30.25S
TRACY          CLOUDY    20  17  88 S3        30.25S
SLAYTON        CLOUDY    19  18  95 CALM      30.23S
$$
MNZ065>067-074>077-082>085-091>093-181800-
   South Central Minnesota

CITY           SKY/WX    TMP DP  RH WIND       PRES   REMARKS
MANKATO        MOSUNNY   18  10  73 S3        30.30S
NEW ULM        LGT SNOW  18  16  93 CALM      30.29F
ST JAMES       MOSUNNY   19  16  86 SE3       30.29F
FAIRMONT       MOSUNNY   19  12  73 CALM      30.26F
GLENCOE        MOSUNNY   18  15  90 SE3       30.30S
FARIBAULT      PTSUNNY   19  14  79 E5        30.30S WCI  13
OWATONNA       LGT SNOW  18  12  79 S3        30.28F
WASECA         PTSUNNY   19  16  86 S3        30.30F
ALBERT LEA     MOSUNNY   18  14  86 CALM      30.28S
$$
MNZ078>079-086>088-094>096-181800-
   Southeast Minnesota

CITY           SKY/WX    TMP DP  RH WIND       PRES   REMARKS
ROCHESTER      CLOUDY    19  14  81 SE6       30.28F HAZE    WCI  11
RED WING       LGT SNOW  21  18  86 CALM      30.31S
STANTON        CLOUDY    21  16  81 S6        30.30S WCI  14
DODGE CENTER   FLURRIES  18  16  93 CALM      30.27F
WINONA         CLOUDY    23  19  86 CALM      30.32F
AUSTIN         LGT SNOW  18  14  86 CALM      30.28S
PRESTON        CLOUDY    19  16  86 SE5       30.28S WCI  12
$$
ABBREVIATIONS USED IN REMARKS
   TC - TEMPERATURES IN CELSIUS
  WCI - WIND CHILL INDEX
   HX - HEAT INDEX
  VSB - VISIBILITY
$$



USA.gov is the U.S. government's official web portal to all federal, state and local government web resources and services.